ZTF彗星

C/2020 V2 ( ZTF )

English version
Home page
Updated on December 1, 2023

---------------------------------------------------------------------

・ プロフィール

発見日 2020年11月2日
発見光度 19.0等
発見者 Zwicky Transient Facility

・ 写真集

・ 軌道要素

Epoch 2023 Feb. 25.0 TT = JDT 2460000.5
T 2023 May 8.56971 TT                                   Rudenko
q   2.2278429            (2000.0)            P               Q
z  -0.0004177      Peri.  162.43150     +0.69787211     +0.59390412
 +/-0.0000002      Node   212.37212     +0.53387549     -0.05876954
e   1.0009305      Incl.  131.61089     +0.47744264     -0.80238646
>From 4360 observations 2020 Apr. 18-2023 July 1, mean residual 0".5.

・ 星図

・ 光度変化

        m1 = -19.4 + 5 logΔ + 35   log r  [    ,-910]  (              〜2020年11月 9日)
        m1 =   4.0 + 5 logΔ + 10.0 log r  [-910,    ]  (2020年11月 9日〜              )

---------------------------------------------------------------------

軌道要素はM.P.E.C. 2023-N16に掲載されたものです。
星図はステラナビゲータ Ver.10 (アストロアーツ) で作成したものです。
光度グラフはComet for Windowsで作成したものです。

---------------------------------------------------------------------

Copyright(C) Seiichi Yoshida (comet@aerith.net). All rights reserved.